Location: Unspecified
(0.0000°N, 0.0000°E)
Time: 18:49:54
(UTC+01:00)

deb Ariane - Visible Passes

Search period start: 24 November 2014 00:00
Search period end: 04 December 2014 00:00
Orbit: 133 x 12191 km, 7.5° (Epoch: 24 November)

Date Brightness Start Highest point End Pass type
(mag) Time Alt. Az. Time Alt. Az. Time Alt. Az.
24 Nov 8.8 02:17:37 79° NNW 02:20:17 79° N 04:17:12 10° E visible
24 Nov 9.3 06:16:35 10° W 08:15:27 82° N 08:42:10 10° E visible
24 Nov 5.3 20:51:01 10° WSW 20:55:58 74° SSE 20:59:59 46° E visible
25 Nov 8.9 01:33:33 71° NE 01:33:33 71° NE 03:19:12 10° E visible
25 Nov 9.4 05:25:49 17° W 07:14:10 81° N 07:53:12 10° E visible
25 Nov 4.7 20:01:56 10° WSW 20:05:26 60° SSE 20:12:28 22° E visible
26 Nov 8.2 00:45:19 53° ENE 00:45:19 53° ENE 02:09:26 10° E visible
26 Nov 9.2 04:36:52 32° W 05:59:15 80° N 06:58:42 10° E visible
26 Nov 4.2 19:08:33 10° SW 19:10:51 38° SSE 19:17:33 10° E visible
26 Nov 7.4 23:09:33 10° W 23:52:47 34° ENE 00:43:54 10° E visible
27 Nov 8.9 03:43:36 51° WNW 04:30:05 79° N 05:57:45 10° E visible
27 Nov 6.2 22:10:01 10° W 22:55:47 16° E 23:07:44 10° E visible
28 Nov 8.8 02:45:51 72° NW 02:58:49 78° N 04:48:39 10° E visible
28 Nov 5.2 21:06:00 10° WSW 21:11:05 84° S 21:13:07 63° E visible
29 Nov 8.8 01:43:25 72° NE 01:43:25 72° NE 03:28:03 10° E visible
29 Nov 9.4 05:32:33 16° W 07:18:50 83° N 07:58:16 10° E visible
29 Nov 4.3 19:57:14 10° WSW 20:00:21 64° SSE 20:06:42 20° E visible
30 Nov 8.2 00:36:07 47° ENE 00:36:07 47° ENE 01:49:19 10° E visible
30 Nov 9.0 04:24:25 37° WNW 05:33:22 80° N 06:42:05 10° E visible
30 Nov 6.9 22:40:30 10° W 23:23:43 23° E 23:49:01 10° E visible
01 Dec 8.7 03:11:09 63° WNW 03:34:29 78° N 05:16:25 10° E visible
01 Dec 5.3 21:19:35 10° W 21:24:49 88° N 21:25:10 84° ENE visible
02 Dec 8.7 01:52:31 73° NE 01:52:31 73° NE 03:36:27 10° E visible
02 Dec 9.4 05:38:52 14° W 07:23:28 84° N 08:03:02 10° E visible
02 Dec 3.9 19:53:17 10° WSW 19:56:06 68° SSE 20:01:55 19° E visible
03 Dec 8.2 00:28:12 43° ENE 00:28:12 43° ENE 01:31:33 10° E visible
03 Dec 8.9 04:13:36 41° WNW 05:11:04 80° N 06:27:14 10° E visible
03 Dec 6.5 22:14:45 10° W 22:57:56 14° E 23:04:24 10° E visible
